| time (UTC) | temp C | wind direction | speed KPH | gust KPH | rain 1hr cm | rain 24hr cm | rain mn cm | humidity % | barometer mb |
| 20260902223519 | 13 | 219 | 0.0 | 0.0 | 0.00 | 0.03 | 0.00 | 81 | 1021.8 |
| 20260902223023 | 13 | 219 | 0.0 | 0.0 | 0.00 | 0.03 | 0.00 | 80 | 1021.9 |
| 20260902222516 | 14 | 219 | 0.0 | 1.6 | 0.00 | 0.03 | 0.00 | 79 | 1022.0 |
| 20260902222015 | 14 | 219 | 0.0 | 1.6 | 0.00 | 0.03 | 0.00 | 79 | 1021.9 |
| 20260902221517 | 14 | 219 | 0.0 | 4.8 | 0.00 | 0.03 | 0.00 | 78 | 1021.8 |
| 20260902221013 | 15 | 219 | 1.6 | 4.8 | 0.00 | 0.03 | 0.00 | 77 | 1021.8 |
| 20260902220512 | 15 | 219 | 0.0 | 1.6 | 0.00 | 0.03 | 0.00 | 77 | 1021.8 |
| 20260902220012 | 15 | 219 | 0.0 | 3.2 | 0.00 | 0.03 | 0.00 | 76 | 1021.8 |
| 20260902215510 | 15 | 219 | 0.0 | 3.2 | 0.00 | 0.03 | 0.03 | 76 | 1021.7 |
| 20260902215010 | 15 | 219 | 1.6 | 3.2 | 0.00 | 0.03 | 0.03 | 75 | 1021.7 |
| 20260902214515 | 15 | 219 | 0.0 | 0.0 | 0.00 | 0.03 | 0.03 | 74 | 1021.7 |
| 20260902214011 | 16 | 219 | 0.0 | 0.0 | 0.00 | 0.03 | 0.03 | 73 | 1021.7 |
| 20260902213510 | 16 | 219 | 0.0 | 0.0 | 0.00 | 0.03 | 0.03 | 73 | 1021.7 |
| 20260902213010 | 15 | 219 | 0.0 | 0.0 | 0.00 | 0.03 | 0.03 | 74 | 1021.7 |
| 20260902212513 | 16 | 219 | 0.0 | 0.0 | 0.00 | 0.03 | 0.03 | 72 | 1021.7 |
| 20260902212010 | 16 | 219 | 0.0 | 0.0 | 0.00 | 0.03 | 0.03 | 72 | 1021.6 |
| 20260902211510 | 16 | 219 | 0.0 | 1.6 | 0.00 | 0.03 | 0.03 | 72 | 1021.7 |
| 20260902211009 | 16 | 219 | 0.0 | 4.8 | 0.00 | 0.03 | 0.03 | 73 | 1021.5 |
| 20260902210510 | 16 | 219 | 1.6 | 6.4 | 0.00 | 0.03 | 0.03 | 73 | 1021.6 |
| 20260902210009 | 16 | 219 | 1.6 | 6.4 | 0.00 | 0.03 | 0.03 | 74 | 1021.6 |
| 20260902205510 | 16 | 339 | 0.0 | 0.0 | 0.00 | 0.03 | 0.03 | 74 | 1021.6 |
| 20260902205009 | 16 | 339 | 0.0 | 0.0 | 0.00 | 0.03 | 0.03 | 71 | 1021.7 |
| 20260902204509 | 17 | 339 | 0.0 | 0.0 | 0.00 | 0.03 | 0.03 | 71 | 1021.6 |
| 20260902204008 | 16 | 339 | 0.0 | 0.0 | 0.00 | 0.03 | 0.03 | 71 | 1021.6 |
| 20260902203510 | 16 | 339 | 0.0 | 0.0 | 0.00 | 0.03 | 0.03 | 71 | 1021.6 |
| 20260902203009 | 17 | 339 | 0.0 | 0.0 | 0.00 | 0.03 | 0.03 | 70 | 1021.7 |
| 20260902202509 | 17 | 339 | 0.0 | 0.0 | 0.00 | 0.03 | 0.03 | 68 | 1021.7 |
| 20260902202009 | 17 | 339 | 0.0 | 0.0 | 0.00 | 0.03 | 0.03 | 68 | 1021.6 |
| 20260902201514 | 17 | 339 | 0.0 | 0.0 | 0.00 | 0.03 | 0.03 | 69 | 1021.7 |
| 20260902201007 | 17 | 339 | 0.0 | 0.0 | 0.00 | 0.03 | 0.03 | 66 | 1021.7 |
| 20260902200509 | 17 | 339 | 0.0 | 0.0 | 0.00 | 0.03 | 0.03 | 62 | 1021.6 |
| 20260902200008 | 18 | 339 | 0.0 | 0.0 | 0.00 | 0.03 | 0.03 | 63 | 1021.7 |
| 20260902195507 | 17 | 339 | 0.0 | 0.0 | 0.00 | 0.03 | 0.03 | 62 | 1021.7 |
| 20260902195009 | 17 | 339 | 0.0 | 0.0 | 0.00 | 0.03 | 0.03 | 63 | 1021.7 |
| 20260902194509 | 17 | 339 | 0.0 | 0.0 | 0.00 | 0.03 | 0.03 | 65 | 1021.5 |
| 20260902194007 | 17 | 339 | 0.0 | 0.0 | 0.00 | 0.03 | 0.03 | 66 | 1021.6 |
| 20260902193507 | 17 | 339 | 0.0 | 0.0 | 0.00 | 0.03 | 0.03 | 65 | 1021.6 |
| 20260902193007 | 17 | 339 | 0.0 | 0.0 | 0.00 | 0.03 | 0.03 | 65 | 1021.6 |
| 20260902192507 | 17 | 339 | 0.0 | 0.0 | 0.00 | 0.03 | 0.03 | 67 | 1021.5 |
| 20260902192007 | 17 | 339 | 0.0 | 0.0 | 0.00 | 0.03 | 0.03 | 63 | 1021.5 |
| 20260902191512 | 17 | 339 | 0.0 | 0.0 | 0.00 | 0.03 | 0.03 | 64 | 1021.4 |
| 20260902191007 | 17 | 339 | 0.0 | 0.0 | 0.00 | 0.03 | 0.03 | 65 | 1021.4 |
| 20260902190507 | 17 | 339 | 0.0 | 0.0 | 0.00 | 0.03 | 0.03 | 64 | 1021.3 |
| 20260902190006 | 18 | 339 | 0.0 | 0.0 | 0.00 | 0.03 | 0.03 | 61 | 1021.2 |
| 20260902185507 | 18 | 339 | 0.0 | 0.0 | 0.00 | 0.03 | 0.03 | 61 | 1021.2 |
| 20260902185005 | 18 | 339 | 0.0 | 0.0 | 0.00 | 0.03 | 0.03 | 60 | 1021.2 |
| 20260902184505 | 18 | 339 | 0.0 | 0.0 | 0.00 | 0.03 | 0.03 | 59 | 1021.2 |
| 20260902184005 | 18 | 339 | 0.0 | 0.0 | 0.00 | 0.03 | 0.03 | 58 | 1021.3 |
| 20260902183505 | 18 | 339 | 0.0 | 0.0 | 0.00 | 0.03 | 0.03 | 58 | 1021.1 |
| 20260902183005 | 18 | 339 | 0.0 | 0.0 | 0.00 | 0.03 | 0.03 | 55 | 1021.1 |
| 20260902182504 | 19 | 339 | 0.0 | 4.8 | 0.00 | 0.03 | 0.03 | 55 | 1020.9 |
| 20260902182006 | 19 | 339 | 1.6 | 4.8 | 0.00 | 0.03 | 0.03 | 55 | 1021.0 |
| 20260902181505 | 19 | 339 | 0.0 | 3.2 | 0.00 | 0.03 | 0.03 | 55 | 1020.8 |
| 20260902181003 | 19 | 339 | 1.6 | 4.8 | 0.00 | 0.03 | 0.03 | 54 | 1020.8 |
| 20260902180503 | 19 | 339 | 1.6 | 8.0 | 0.00 | 0.03 | 0.03 | 53 | 1020.6 |
| 20260902180006 | 20 | 339 | 1.6 | 9.7 | 0.00 | 0.03 | 0.03 | 53 | 1020.6 |
| 20260902175503 | 20 | 339 | 3.2 | 9.7 | 0.00 | 0.03 | 0.03 | 52 | 1020.6 |
| 20260902175006 | 20 | 339 | 1.6 | 12.9 | 0.00 | 0.03 | 0.03 | 52 | 1020.5 |
| 20260902174505 | 20 | 338 | 4.8 | 12.9 | 0.00 | 0.03 | 0.03 | 51 | 1020.5 |
| 20260902174003 | 20 | 341 | 3.2 | 8.0 | 0.00 | 0.03 | 0.03 | 52 | 1020.5 |
| 20260902173504 | 20 | 342 | 1.6 | 9.7 | 0.00 | 0.03 | 0.03 | 51 | 1020.4 |
| 20260902173003 | 21 | 340 | 3.2 | 9.7 | 0.00 | 0.03 | 0.03 | 50 | 1020.4 |
| 20260902172503 | 21 | 342 | 3.2 | 8.0 | 0.00 | 0.03 | 0.03 | 51 | 1020.4 |
| 20260902172004 | 21 | 342 | 0.0 | 9.7 | 0.00 | 0.03 | 0.03 | 51 | 1020.4 |
| 20260902171503 | 21 | 342 | 1.6 | 9.7 | 0.00 | 0.03 | 0.03 | 51 | 1020.5 |
| 20260902171002 | 21 | 341 | 3.2 | 14.5 | 0.00 | 0.03 | 0.03 | 50 | 1020.5 |
| 20260902170504 | 21 | 340 | 1.6 | 14.5 | 0.00 | 0.03 | 0.03 | 50 | 1020.5 |
| 20260902170002 | 21 | 336 | 3.2 | 9.7 | 0.00 | 0.03 | 0.03 | 50 | 1020.5 |
| 20260902165502 | 21 | 334 | 4.8 | 12.9 | 0.00 | 0.03 | 0.03 | 50 | 1020.4 |
| 20260902165002 | 21 | 333 | 8.0 | 14.5 | 0.00 | 0.03 | 0.03 | 50 | 1020.5 |
| 20260902164503 | 21 | 339 | 4.8 | 16.1 | 0.00 | 0.03 | 0.03 | 50 | 1020.5 |
| 20260902164001 | 21 | 330 | 6.4 | 17.7 | 0.00 | 0.03 | 0.03 | 51 | 1020.5 |
| 20260902163502 | 21 | 329 | 8.0 | 17.7 | 0.00 | 0.03 | 0.03 | 51 | 1020.5 |
| 20260902163002 | 21 | 346 | 4.8 | 14.5 | 0.00 | 0.03 | 0.03 | 51 | 1020.5 |
| 20260902162501 | 21 | 348 | 4.8 | 14.5 | 0.00 | 0.03 | 0.03 | 51 | 1020.5 |
| 20260902162003 | 21 | 329 | 3.2 | 14.5 | 0.00 | 0.03 | 0.03 | 50 | 1020.5 |
| 20260902161503 | 21 | 340 | 6.4 | 14.5 | 0.00 | 0.03 | 0.03 | 50 | 1020.5 |
| 20260902161059 | 22 | 339 | 3.2 | 19.3 | 0.00 | 0.03 | 0.03 | 50 | 1020.5 |
| 20260902160600 | 22 | 348 | 8.0 | 19.3 | 0.00 | 0.03 | 0.03 | 48 | 1020.4 |
| 20260902160106 | 22 | 324 | 6.4 | 19.3 | 0.00 | 0.03 | 0.03 | 49 | 1020.6 |
| 20260902155604 | 22 | 351 | 11.3 | 19.3 | 0.00 | 0.03 | 0.03 | 48 | 1020.5 |
| 20260902155100 | 22 | 337 | 4.8 | 19.3 | 0.00 | 0.03 | 0.03 | 48 | 1020.5 |
| 20260902154609 | 22 | 333 | 4.8 | 20.9 | 0.00 | 0.03 | 0.03 | 49 | 1020.5 |
| 20260902154059 | 22 | 338 | 3.2 | 20.9 | 0.00 | 0.03 | 0.03 | 48 | 1020.5 |
| 20260902153559 | 22 | 344 | 6.4 | 14.5 | 0.00 | 0.03 | 0.03 | 47 | 1020.4 |
| 20260902153059 | 22 | 337 | 6.4 | 14.5 | 0.00 | 0.03 | 0.03 | 46 | 1020.4 |
| 20260902152559 | 22 | 337 | 1.6 | 12.9 | 0.00 | 0.03 | 0.03 | 50 | 1020.4 |
| 20260902152102 | 22 | 339 | 6.4 | 12.9 | 0.00 | 0.03 | 0.03 | 46 | 1020.4 |
| 20260902151559 | 22 | 344 | 3.2 | 16.1 | 0.00 | 0.03 | 0.03 | 48 | 1020.4 |
| 20260902151058 | 22 | 342 | 3.2 | 17.7 | 0.00 | 0.03 | 0.03 | 48 | 1020.5 |
| 20260902150558 | 22 | 341 | 4.8 | 14.5 | 0.00 | 0.03 | 0.03 | 49 | 1020.6 |
| 20260902150058 | 22 | 341 | 4.8 | 14.5 | 0.00 | 0.03 | 0.03 | 50 | 1020.6 |
| 20260902145558 | 22 | 334 | 4.8 | 16.1 | 0.00 | 0.03 | 0.03 | 49 | 1020.6 |
| 20260902145057 | 22 | 336 | 8.0 | 16.1 | 0.00 | 0.03 | 0.03 | 49 | 1020.6 |
| 20260902144559 | 22 | 336 | 8.0 | 16.1 | 0.00 | 0.03 | 0.03 | 47 | 1020.6 |
| 20260902144057 | 23 | 322 | 4.8 | 16.1 | 0.00 | 0.03 | 0.03 | 48 | 1020.6 |
| 20260902143559 | 23 | 313 | 4.8 | 14.5 | 0.00 | 0.03 | 0.03 | 48 | 1020.6 |
| 20260902143058 | 23 | 339 | 3.2 | 17.7 | 0.00 | 0.03 | 0.03 | 47 | 1020.6 |
| 20260902142557 | 23 | 325 | 4.8 | 17.7 | 0.00 | 0.03 | 0.03 | 47 | 1020.5 |
| 20260902142057 | 23 | 344 | 3.2 | 17.7 | 0.00 | 0.03 | 0.03 | 49 | 1020.5 |
| 20260902141558 | 23 | 337 | 4.8 | 17.7 | 0.00 | 0.03 | 0.03 | 47 | 1020.5 |
| 20260902141056 | 23 | 347 | 8.0 | 20.9 | 0.00 | 0.03 | 0.03 | 46 | 1020.5 |
| 20260902140558 | 23 | 342 | 8.0 | 20.9 | 0.00 | 0.03 | 0.03 | 47 | 1020.6 |
| 20260902140055 | 23 | 341 | 8.0 | 16.1 | 0.00 | 0.03 | 0.03 | 48 | 1020.5 |
| 20260902135556 | 23 | 336 | 3.2 | 12.9 | 0.00 | 0.03 | 0.03 | 48 | 1020.5 |
| 20260902135056 | 23 | 335 | 3.2 | 16.1 | 0.00 | 0.03 | 0.03 | 48 | 1020.5 |
| 20260902134557 | 23 | 347 | 4.8 | 16.1 | 0.00 | 0.03 | 0.03 | 47 | 1020.6 |
| 20260902134055 | 24 | 266 | 3.2 | 14.5 | 0.00 | 0.03 | 0.03 | 45 | 1020.4 |
| 20260902133555 | 24 | 252 | 6.4 | 16.1 | 0.00 | 0.03 | 0.03 | 46 | 1020.6 |
| 20260902133055 | 25 | 262 | 1.6 | 16.1 | 0.00 | 0.03 | 0.03 | 45 | 1020.5 |
| 20260902132556 | 25 | 335 | 3.2 | 16.1 | 0.00 | 0.03 | 0.03 | 47 | 1020.6 |
| 20260902132056 | 25 | 343 | 1.6 | 14.5 | 0.00 | 0.03 | 0.03 | 49 | 1020.6 |
| 20260902131556 | 25 | 335 | 3.2 | 14.5 | 0.00 | 0.03 | 0.03 | 47 | 1020.6 |
| 20260902131057 | 24 | 339 | 4.8 | 14.5 | 0.00 | 0.03 | 0.03 | 47 | 1020.6 |
| 20260902130554 | 24 | 338 | 3.2 | 14.5 | 0.00 | 0.03 | 0.03 | 48 | 1020.6 |
| 20260902130056 | 25 | 256 | 4.8 | 11.3 | 0.00 | 0.03 | 0.03 | 47 | 1020.5 |
| 20260902125554 | 25 | 347 | 1.6 | 16.1 | 0.00 | 0.03 | 0.03 | 48 | 1020.5 |
| 20260902125054 | 24 | 338 | 1.6 | 14.5 | 0.00 | 0.03 | 0.03 | 50 | 1020.6 |
| 20260902124554 | 24 | 346 | 4.8 | 14.5 | 0.00 | 0.03 | 0.03 | 49 | 1020.5 |
| 20260902124054 | 25 | 304 | 3.2 | 19.3 | 0.00 | 0.03 | 0.03 | 51 | 1020.5 |
| 20260902123556 | 25 | 294 | 3.2 | 19.3 | 0.00 | 0.03 | 0.03 | 47 | 1020.7 |
| 20260902123054 | 25 | 321 | 1.6 | 20.9 | 0.00 | 0.03 | 0.03 | 50 | 1020.6 |
| 20260902122552 | 25 | 338 | 6.4 | 20.9 | 0.00 | 0.03 | 0.03 | 48 | 1020.7 |
| 20260902122053 | 24 | 335 | 3.2 | 14.5 | 0.00 | 0.03 | 0.03 | 51 | 1020.7 |
| 20260902121550 | 23 | 264 | 8.0 | 17.7 | 0.00 | 0.03 | 0.03 | 54 | 1020.7 |
| 20260902121048 | 23 | 268 | 1.6 | 17.7 | 0.00 | 0.03 | 0.03 | 51 | 1020.8 |
| 20260902120547 | 23 | 331 | 1.6 | 14.5 | 0.00 | 0.03 | 0.03 | 52 | 1020.7 |
| 20260902120047 | 23 | 240 | 6.4 | 14.5 | 0.00 | 0.03 | 0.03 | 51 | 1020.9 |
| 20260902115546 | 23 | 309 | 3.2 | 9.7 | 0.00 | 0.03 | 0.03 | 51 | 1021.0 |
| 20260902115049 | 23 | 313 | 1.6 | 14.5 | 0.00 | 0.03 | 0.03 | 53 | 1020.9 |
| 20260902114610 | 22 | 261 | 3.2 | 14.5 | 0.00 | 0.03 | 0.03 | 54 | 1021.0 |
| 20260902114043 | 22 | 250 | 4.8 | 16.1 | 0.00 | 0.03 | 0.03 | 53 | 1021.0 |
| 20260902113543 | 22 | 250 | 4.8 | 22.5 | 0.00 | 0.03 | 0.03 | 55 | 1021.1 |
| 20260902113048 | 22 | 252 | 4.8 | 22.5 | 0.00 | 0.03 | 0.03 | 56 | 1021.0 |
| 20260902112542 | 22 | 321 | 3.2 | 9.7 | 0.00 | 0.03 | 0.03 | 58 | 1021.0 |
| 20260902112042 | 22 | 229 | 0.0 | 8.0 | 0.00 | 0.03 | 0.03 | 60 | 1021.1 |
| 20260902111541 | 22 | 229 | 1.6 | 12.9 | 0.00 | 0.03 | 0.03 | 59 | 1021.1 |
| 20260902111040 | 22 | 229 | 0.0 | 12.9 | 0.00 | 0.03 | 0.03 | 60 | 1021.2 |
| 20260902110542 | 22 | 238 | 6.4 | 11.3 | 0.00 | 0.03 | 0.03 | 61 | 1021.1 |
| 20260902110040 | 22 | 249 | 6.4 | 12.9 | 0.00 | 0.03 | 0.03 | 63 | 1021.1 |
| 20260902105544 | 22 | 205 | 4.8 | 12.9 | 0.00 | 0.03 | 0.03 | 62 | 1021.3 |
| 20260902105040 | 22 | 213 | 4.8 | 11.3 | 0.00 | 0.03 | 0.03 | 60 | 1021.2 |
| 20260902104539 | 22 | 221 | 1.6 | 12.9 | 0.00 | 0.03 | 0.03 | 62 | 1021.4 |
| 20260902104038 | 22 | 200 | 6.4 | 9.7 | 0.00 | 0.03 | 0.03 | 62 | 1021.5 |
| 20260902103538 | 22 | 188 | 3.2 | 8.0 | 0.00 | 0.03 | 0.03 | 62 | 1021.5 |
| 20260902103043 | 22 | 196 | 3.2 | 6.4 | 0.00 | 0.03 | 0.03 | 64 | 1021.6 |
| 20260902102536 | 21 | 200 | 3.2 | 6.4 | 0.00 | 0.03 | 0.03 | 64 | 1021.8 |
| 20260902102036 | 21 | 204 | 1.6 | 6.4 | 0.00 | 0.03 | 0.03 | 65 | 1021.9 |
| 20260902101535 | 21 | 204 | 3.2 | 6.4 | 0.00 | 0.03 | 0.03 | 68 | 1021.8 |
| 20260902101034 | 21 | 202 | 3.2 | 6.4 | 0.00 | 0.03 | 0.03 | 67 | 1021.9 |
| 20260902100533 | 21 | 204 | 3.2 | 8.0 | 0.00 | 0.03 | 0.03 | 70 | 1021.9 |
| 20260902100041 | 20 | 205 | 1.6 | 8.0 | 0.00 | 0.03 | 0.03 | 70 | 1021.8 |
| 20260902095531 | 20 | 209 | 1.6 | 8.0 | 0.00 | 0.03 | 0.03 | 74 | 1022.0 |
| 20260902095031 | 19 | 209 | 3.2 | 8.0 | 0.00 | 0.03 | 0.03 | 73 | 1022.0 |
| 20260902094531 | 20 | 207 | 3.2 | 8.0 | 0.00 | 0.03 | 0.03 | 73 | 1022.1 |
| 20260902094030 | 20 | 212 | 4.8 | 8.0 | 0.00 | 0.03 | 0.03 | 74 | 1022.0 |
| 20260902093529 | 18 | 215 | 0.0 | 6.4 | 0.00 | 0.03 | 0.03 | 76 | 1022.1 |
| 20260902093029 | 19 | 215 | 1.6 | 6.4 | 0.00 | 0.03 | 0.03 | 76 | 1022.0 |
| 20260902092532 | 18 | 215 | 3.2 | 8.0 | 0.00 | 0.03 | 0.03 | 77 | 1022.1 |
| 20260902092032 | 18 | 217 | 3.2 | 8.0 | 0.00 | 0.03 | 0.03 | 78 | 1022.1 |
| 20260902091527 | 18 | 219 | 3.2 | 8.0 | 0.00 | 0.03 | 0.03 | 78 | 1022.1 |
| 20260902091025 | 18 | 221 | 1.6 | 8.0 | 0.00 | 0.03 | 0.03 | 79 | 1022.1 |
| 20260902090525 | 17 | 220 | 3.2 | 8.0 | 0.00 | 0.03 | 0.03 | 79 | 1022.2 |
| 20260902090027 | 17 | 220 | 1.6 | 6.4 | 0.00 | 0.03 | 0.03 | 81 | 1022.1 |
| 20260902085522 | 17 | 220 | 1.6 | 6.4 | 0.00 | 0.03 | 0.03 | 81 | 1022.1 |
| 20260902085022 | 17 | 220 | 0.0 | 4.8 | 0.00 | 0.03 | 0.03 | 82 | 1022.1 |
| 20260902084522 | 17 | 220 | 1.6 | 6.4 | 0.00 | 0.03 | 0.03 | 81 | 1022.1 |
| 20260902084026 | 17 | 221 | 3.2 | 8.0 | 0.00 | 0.03 | 0.03 | 81 | 1022.0 |
| 20260902083521 | 17 | 221 | 3.2 | 8.0 | 0.00 | 0.03 | 0.03 | 82 | 1022.1 |
| 20260902083029 | 17 | 252 | 1.6 | 8.0 | 0.00 | 0.03 | 0.03 | 81 | 1022.1 |
| 20260902082521 | 17 | 253 | 4.8 | 8.0 | 0.00 | 0.03 | 0.03 | 81 | 1022.2 |
| 20260902082020 | 17 | 343 | 1.6 | 6.4 | 0.00 | 0.03 | 0.03 | 83 | 1022.0 |
| 20260902081519 | 17 | 342 | 3.2 | 6.4 | 0.00 | 0.03 | 0.03 | 84 | 1022.1 |
| 20260902081018 | 17 | 343 | 0.0 | 4.8 | 0.00 | 0.03 | 0.03 | 85 | 1022.1 |
| 20260902080517 | 16 | 342 | 0.0 | 4.8 | 0.00 | 0.03 | 0.03 | 85 | 1022.0 |
| 20260902080017 | 16 | 342 | 0.0 | 3.2 | 0.00 | 0.03 | 0.03 | 85 | 1022.0 |
| 20260902075516 | 16 | 342 | 0.0 | 3.2 | 0.00 | 0.03 | 0.03 | 85 | 1022.1 |
| 20260902075015 | 16 | 342 | 1.6 | 3.2 | 0.00 | 0.03 | 0.03 | 86 | 1022.0 |
| 20260902074523 | 16 | 342 | 1.6 | 4.8 | 0.00 | 0.03 | 0.03 | 86 | 1022.0 |
| 20260902074015 | 16 | 342 | 1.6 | 4.8 | 0.00 | 0.03 | 0.03 | 89 | 1022.1 |
| 20260902073516 | 15 | 342 | 0.0 | 0.0 | 0.00 | 0.03 | 0.03 | 90 | 1022.0 |
| 20260902073012 | 15 | 342 | 0.0 | 0.0 | 0.00 | 0.03 | 0.03 | 92 | 1022.0 |
| 20260902072511 | 14 | 342 | 0.0 | 0.0 | 0.00 | 0.03 | 0.03 | 92 | 1022.0 |
| 20260902072012 | 14 | 342 | 0.0 | 1.6 | 0.00 | 0.03 | 0.03 | 93 | 1021.8 |
| 20260902071512 | 13 | 342 | 0.0 | 1.6 | 0.00 | 0.03 | 0.03 | 93 | 1021.8 |
| 20260902071014 | 13 | 342 | 0.0 | 1.6 | 0.00 | 0.03 | 0.03 | 93 | 1021.8 |
| 20260902070512 | 13 | 342 | 0.0 | 0.0 | 0.00 | 0.03 | 0.03 | 94 | 1021.8 |
| 20260902070009 | 12 | 342 | 0.0 | 1.6 | 0.00 | 0.03 | 0.03 | 93 | 1021.7 |
| 20260902065509 | 12 | 342 | 0.0 | 0.0 | 0.00 | 0.03 | 0.03 | 93 | 1021.8 |
| 20260902065010 | 12 | 342 | 0.0 | 1.6 | 0.00 | 0.03 | 0.03 | 93 | 1021.8 |
| 20260902064511 | 12 | 342 | 0.0 | 1.6 | 0.00 | 0.03 | 0.03 | 94 | 1021.7 |
| 20260902064008 | 12 | 342 | 0.0 | 1.6 | 0.00 | 0.03 | 0.03 | 94 | 1021.7 |
| 20260902063512 | 12 | 342 | 0.0 | 0.0 | 0.00 | 0.03 | 0.03 | 94 | 1021.7 |
| 20260902063008 | 12 | 342 | 0.0 | 0.0 | 0.00 | 0.03 | 0.03 | 93 | 1021.7 |
| 20260902062507 | 12 | 342 | 0.0 | 0.0 | 0.00 | 0.03 | 0.03 | 94 | 1021.6 |
| 20260902062012 | 12 | 342 | 0.0 | 0.0 | 0.00 | 0.03 | 0.03 | 94 | 1021.7 |
| 20260902061518 | 12 | 342 | 0.0 | 0.0 | 0.00 | 0.03 | 0.03 | 93 | 1021.5 |
| 20260902061007 | 11 | 342 | 0.0 | 3.2 | 0.00 | 0.03 | 0.03 | 93 | 1021.6 |
| 20260902060507 | 11 | 342 | 0.0 | 4.8 | 0.00 | 0.03 | 0.03 | 93 | 1021.5 |
| 20260902060010 | 11 | 342 | 0.0 | 3.2 | 0.00 | 0.03 | 0.03 | 93 | 1021.5 |
| 20260902055508 | 11 | 342 | 0.0 | 3.2 | 0.00 | 0.03 | 0.03 | 93 | 1021.6 |
| 20260902055006 | 11 | 342 | 0.0 | 3.2 | 0.00 | 0.03 | 0.03 | 93 | 1021.5 |
| 20260902054506 | 11 | 342 | 0.0 | 0.0 | 0.00 | 0.03 | 0.03 | 94 | 1021.5 |
| 20260902054005 | 11 | 342 | 0.0 | 0.0 | 0.00 | 0.03 | 0.03 | 93 | 1021.7 |
| 20260902053506 | 11 | 342 | 0.0 | 0.0 | 0.00 | 0.03 | 0.03 | 94 | 1021.7 |
| 20260902053007 | 11 | 342 | 0.0 | 0.0 | 0.00 | 0.03 | 0.03 | 94 | 1021.6 |
| 20260902052507 | 11 | 342 | 0.0 | 0.0 | 0.00 | 0.03 | 0.03 | 94 | 1021.7 |
| 20260902052008 | 11 | 342 | 0.0 | 0.0 | 0.00 | 0.03 | 0.03 | 93 | 1021.7 |
| 20260902051505 | 11 | 342 | 0.0 | 0.0 | 0.00 | 0.03 | 0.03 | 94 | 1021.5 |
| 20260902051004 | 11 | 342 | 0.0 | 0.0 | 0.00 | 0.03 | 0.03 | 94 | 1021.4 |
| 20260902050505 | 11 | 342 | 0.0 | 0.0 | 0.00 | 0.03 | 0.03 | 93 | 1021.4 |
| 20260902050007 | 11 | 342 | 0.0 | 0.0 | 0.00 | 0.03 | 0.03 | 93 | 1021.3 |
| 20260902045504 | 11 | 342 | 0.0 | 0.0 | 0.00 | 0.03 | 0.03 | 93 | 1021.2 |
| 20260902045004 | 11 | 342 | 0.0 | 0.0 | 0.03 | 0.03 | 0.03 | 94 | 1021.2 |
| 20260902044504 | 11 | 342 | 0.0 | 1.6 | 0.03 | 0.03 | 0.03 | 93 | 1021.2 |
| 20260902044004 | 11 | 342 | 0.0 | 1.6 | 0.03 | 0.03 | 0.03 | 93 | 1021.2 |
| 20260902043504 | 11 | 342 | 0.0 | 0.0 | 0.03 | 0.03 | 0.03 | 94 | 1021.2 |
| 20260902043008 | 11 | 342 | 0.0 | 0.0 | 0.03 | 0.03 | 0.03 | 93 | 1021.3 |
| 20260902042504 | 11 | 342 | 0.0 | 1.6 | 0.03 | 0.03 | 0.03 | 93 | 1021.5 |
| 20260902042003 | 11 | 342 | 0.0 | 1.6 | 0.03 | 0.03 | 0.03 | 93 | 1021.4 |
| 20260902041502 | 11 | 342 | 0.0 | 0.0 | 0.03 | 0.03 | 0.03 | 93 | 1021.5 |
| 20260902041001 | 11 | 342 | 0.0 | 0.0 | 0.03 | 0.03 | 0.03 | 93 | 1021.3 |
| 20260902040501 | 11 | 342 | 0.0 | 0.0 | 0.03 | 0.03 | 0.03 | 93 | 1021.4 |
| 20260902040001 | 11 | 342 | 0.0 | 0.0 | 0.03 | 0.03 | 0.03 | 93 | 1021.4 |
| 20260902035500 | 11 | 342 | 0.0 | 0.0 | 0.00 | 0.00 | 0.00 | 93 | 1021.5 |
| 20260902035100 | 11 | 342 | 0.0 | 0.0 | 0.00 | 0.00 | 0.00 | 93 | 1021.4 |
| 20260902034605 | 11 | 342 | 0.0 | 0.0 | 0.00 | 0.00 | 0.00 | 93 | 1021.5 |
| 20260902034100 | 11 | 342 | 0.0 | 0.0 | 0.00 | 0.00 | 0.00 | 93 | 1021.5 |
| 20260902033600 | 11 | 342 | 0.0 | 3.2 | 0.00 | 0.00 | 0.00 | 93 | 1021.5 |
| 20260902033100 | 11 | 342 | 0.0 | 3.2 | 0.00 | 0.00 | 0.00 | 93 | 1021.4 |
| 20260902032600 | 11 | 342 | 0.0 | 4.8 | 0.00 | 0.00 | 0.00 | 93 | 1021.5 |
| 20260902032059 | 11 | 342 | 1.6 | 4.8 | 0.00 | 0.00 | 0.00 | 93 | 1021.6 |
| 20260902031615 | 11 | 342 | 0.0 | 0.0 | 0.00 | 0.00 | 0.00 | 93 | 1021.5 |
| 20260902031059 | 11 | 342 | 0.0 | 0.0 | 0.00 | 0.00 | 0.00 | 93 | 1021.5 |
| 20260902030558 | 11 | 342 | 0.0 | 0.0 | 0.00 | 0.00 | 0.00 | 93 | 1021.5 |
| 20260902030059 | 11 | 342 | 0.0 | 0.0 | 0.00 | 0.00 | 0.00 | 93 | 1021.6 |
| 20260902025558 | 11 | 342 | 0.0 | 0.0 | 0.00 | 0.00 | 0.00 | 93 | 1021.6 |
| 20260902025058 | 11 | 342 | 0.0 | 0.0 | 0.00 | 0.00 | 0.00 | 93 | 1021.7 |
| 20260902024618 | 11 | 342 | 0.0 | 0.0 | 0.00 | 0.00 | 0.00 | 93 | 1021.7 |
| 20260902024058 | 11 | 342 | 0.0 | 0.0 | 0.00 | 0.00 | 0.00 | 93 | 1021.7 |
| 20260902023558 | 11 | 342 | 0.0 | 0.0 | 0.00 | 0.00 | 0.00 | 93 | 1021.7 |
| 20260902023104 | 11 | 342 | 0.0 | 0.0 | 0.00 | 0.00 | 0.00 | 93 | 1021.6 |
| 20260902022558 | 11 | 342 | 0.0 | 0.0 | 0.00 | 0.00 | 0.00 | 93 | 1021.7 |
| 20260902022057 | 11 | 342 | 0.0 | 0.0 | 0.00 | 0.00 | 0.00 | 93 | 1021.7 |
| 20260902021604 | 11 | 342 | 0.0 | 0.0 | 0.00 | 0.00 | 0.00 | 93 | 1021.6 |
| 20260902021056 | 11 | 342 | 0.0 | 0.0 | 0.00 | 0.00 | 0.00 | 93 | 1021.5 |
| 20260902020556 | 11 | 342 | 0.0 | 0.0 | 0.00 | 0.00 | 0.00 | 93 | 1021.5 |
| 20260902020054 | 11 | 342 | 0.0 | 0.0 | 0.00 | 0.00 | 0.00 | 93 | 1021.6 |
| 20260902015554 | 11 | 342 | 0.0 | 0.0 | 0.00 | 0.00 | 0.00 | 93 | 1021.6 |
| 20260902015056 | 11 | 342 | 0.0 | 0.0 | 0.00 | 0.00 | 0.00 | 93 | 1021.6 |
| 20260902014553 | 12 | 342 | 0.0 | 0.0 | 0.00 | 0.00 | 0.00 | 93 | 1021.6 |
| 20260902014053 | 12 | 342 | 0.0 | 0.0 | 0.00 | 0.00 | 0.00 | 93 | 1021.4 |
| 20260902013557 | 12 | 342 | 0.0 | 0.0 | 0.00 | 0.00 | 0.00 | 93 | 1021.4 |
| 20260902013053 | 12 | 342 | 0.0 | 0.0 | 0.00 | 0.00 | 0.00 | 93 | 1021.5 |
| 20260902012552 | 12 | 342 | 0.0 | 0.0 | 0.00 | 0.00 | 0.00 | 93 | 1021.3 |
| 20260902012052 | 11 | 342 | 0.0 | 0.0 | 0.00 | 0.00 | 0.00 | 93 | 1021.4 |
| 20260902011559 | 11 | 342 | 0.0 | 0.0 | 0.00 | 0.00 | 0.00 | 92 | 1021.4 |
| 20260902011051 | 12 | 342 | 0.0 | 0.0 | 0.00 | 0.00 | 0.00 | 92 | 1021.4 |
| 20260902010550 | 12 | 342 | 0.0 | 0.0 | 0.00 | 0.00 | 0.00 | 93 | 1021.4 |
| 20260902010050 | 12 | 342 | 0.0 | 0.0 | 0.00 | 0.00 | 0.00 | 92 | 1021.4 |
| 20260902005549 | 12 | 342 | 0.0 | 0.0 | 0.00 | 0.00 | 0.00 | 92 | 1021.4 |
| 20260902005049 | 12 | 342 | 0.0 | 0.0 | 0.00 | 0.00 | 0.00 | 93 | 1021.4 |
| 20260902004551 | 12 | 342 | 0.0 | 0.0 | 0.00 | 0.00 | 0.00 | 92 | 1021.3 |
| 20260902004048 | 12 | 342 | 0.0 | 0.0 | 0.00 | 0.00 | 0.00 | 92 | 1021.5 |
| 20260902003547 | 12 | 342 | 0.0 | 0.0 | 0.00 | 0.00 | 0.00 | 92 | 1021.4 |
| 20260902003047 | 12 | 342 | 0.0 | 0.0 | 0.00 | 0.00 | 0.00 | 92 | 1021.5 |
| 20260902002549 | 12 | 342 | 0.0 | 0.0 | 0.00 | 0.00 | 0.00 | 92 | 1021.8 |
| 20260902002046 | 12 | 342 | 0.0 | 0.0 | 0.00 | 0.00 | 0.00 | 92 | 1021.9 |
| 20260902001556 | 12 | 342 | 0.0 | 0.0 | 0.00 | 0.00 | 0.00 | 92 | 1021.8 |
| 20260902001046 | 12 | 342 | 0.0 | 0.0 | 0.00 | 0.00 | 0.00 | 92 | 1021.9 |
| 20260902000547 | 12 | 342 | 0.0 | 0.0 | 0.00 | 0.00 | 0.00 | 92 | 1021.9 |
| 20260902000046 | 12 | 342 | 0.0 | 0.0 | 0.00 | 0.00 | 0.00 | 92 | 1021.9 |
| 20260901235545 | 12 | 342 | 0.0 | 0.0 | 0.00 | 0.00 | 0.00 | 92 | 1021.9 |
| 20260901235044 | 12 | 342 | 0.0 | 0.0 | 0.00 | 0.00 | 0.00 | 92 | 1021.9 |
| 20260901234545 | 12 | 342 | 0.0 | 0.0 | 0.00 | 0.00 | 0.00 | 91 | 1021.9 |
| 20260901234044 | 12 | 342 | 0.0 | 0.0 | 0.00 | 0.00 | 0.00 | 91 | 1021.8 |
| 20260901233545 | 12 | 342 | 0.0 | 0.0 | 0.00 | 0.00 | 0.00 | 92 | 1022.0 |
| 20260901233054 | 12 | 342 | 0.0 | 0.0 | 0.00 | 0.00 | 0.00 | 91 | 1022.0 |
| 20260901232546 | 12 | 342 | 0.0 | 0.0 | 0.00 | 0.00 | 0.00 | 91 | 1022.0 |
| 20260901232042 | 12 | 342 | 0.0 | 0.0 | 0.00 | 0.00 | 0.00 | 91 | 1021.9 |
| 20260901231543 | 12 | 342 | 0.0 | 0.0 | 0.00 | 0.00 | 0.00 | 91 | 1021.9 |
| 20260901231040 | 12 | 342 | 0.0 | 0.0 | 0.00 | 0.00 | 0.00 | 90 | 1022.0 |
| 20260901230540 | 12 | 342 | 0.0 | 0.0 | 0.00 | 0.00 | 0.00 | 90 | 1021.8 |
| 20260901230040 | 12 | 342 | 0.0 | 0.0 | 0.00 | 0.00 | 0.00 | 90 | 1021.7 |
| 20260901225538 | 12 | 342 | 0.0 | 0.0 | 0.00 | 0.00 | 0.00 | 88 | 1021.7 |
| 20260901225038 | 13 | 342 | 0.0 | 0.0 | 0.00 | 0.00 | 0.00 | 87 | 1021.7 |
| 20260901224537 | 13 | 342 | 0.0 | 0.0 | 0.00 | 0.00 | 0.00 | 88 | 1021.5 |
| 20260901224036 | 13 | 342 | 0.0 | 0.0 | 0.00 | 0.00 | 0.00 | 88 | 1021.7 |